Retour au catalogue

IKONOS 2

ActifScienceSSO
NORAD 25919·PAYLOAD·🇺🇸 United States

Lancé Sep 24, 1999 depuis Vandenberg Space Force Base

Loading…

Prochains Passages (prochaines 24 heures)

TLE

FraisSource: Space-Track

Époque: Sep 14, 2026, 03:48 UTC

1 25919U 99051A   26257.15841115  .00000972  00000-0  88670-4 0  9999
2 25919  98.1193 149.6202 0005155 270.8824  89.1806 14.97593396452234

Suivez IKONOS 2 en temps réel avec AllMySat

Download on the App Store